This demonstration page uses our WeatherBlox Daily Observations layout. Learn more.

Left ArrowRight Arrow

Hourly Observations for January 22, 2017

Temp ( °F °C ) Dew Point ( °F °C ) Humidity (%) Winds ( mph kmh ) Pressure ( in mb ) Visibility ( mi km ) Precip ( " mm )
12:53 am 00:53 Cloudy with Rain 46 7.8 42 5.6 86 86 SSE 25 41 29.66 1004 5 8 0.10 2.54
1:53 am 01:53 Cloudy with Light Rain 44 6.7 42 5.6 93 93 S 30 48 29.62 1003 5 8 0.08 2.03
2:53 am 02:53 Cloudy with Light Rain 44 6.7 41 5 89 89 S 23 37 29.58 1002 9 14 0.06 1.52
3:53 am 03:53 Cloudy with Rain 45 7.2 43 6.1 93 93 S 28 44 29.55 1001 5 8 0.08 2.03
4:53 am 04:53 Cloudy with Light Rain 46 7.8 43 6.1 89 89 S 26 43 29.52 1000 10 16 0.04 1.02
5:06 am 05:06 Cloudy with Light Rain 46 8 45 7 93 93 S 31 50 29.56 1001 10 16 0.00 0.00
5:53 am 05:53 Cloudy 47 8.3 44 6.7 90 90 SSW 18 30 29.56 1001 10 16 0.02 0.51
6:53 am 06:53 Cloudy 46 7.8 44 6.7 93 93 S 15 24 29.60 1002 10 16 0.04 1.02
7:53 am 07:53 Cloudy 47 8.3 45 7.2 93 93 S 13 20 29.63 1004 10 16 0.00 0.00
8:16 am 08:16 Cloudy 46 8 45 7 93 93 S 10 17 29.68 1005 10 16 0.00 0.00
8:23 am 08:23 Cloudy 47 8.3 45 7.2 93 93 S 12 19 29.68 1005 10 16 0.00 0.00
8:50 am 08:50 Cloudy 46 8 45 7 93 93 S 12 19 29.71 1006 10 16 0.00 0.00
8:53 am 08:53 Cloudy 47 8.3 44 6.7 90 90 S 10 17 29.67 1005 10 16 0.00 0.00
9:04 am 09:04 Cloudy 46 8 45 7 93 93 S 14 22 29.71 1006 10 16 0.00 0.00
9:37 am 09:37 Cloudy 47 8.3 45 7.2 93 93 S 9 15 29.71 1006 10 16 0.00 0.00
9:53 am 09:53 Cloudy 47 8.3 44 6.7 90 90 SSW 9 15 29.70 1006 10 16 0.00 0.00
10:07 am 10:07 Cloudy 48 8.9 45 7.2 89 89 SSW 8 13 29.74 1007 10 16 0.00 0.00
10:14 am 10:14 Cloudy 48 8.9 44 6.7 86 86 S 9 15 29.74 1007 10 16 0.00 0.00
10:45 am 10:45 Cloudy 48 8.9 45 7.2 89 89 S 7 11 29.74 1007 10 16 0.00 0.00
10:53 am 10:53 Cloudy 49 9.4 46 7.8 90 90 S 7 11 29.70 1006 10 16 0.00 0.00
11:53 am 11:53 Cloudy 51 10.6 45 7.2 80 80 SSE 14 22 29.66 1005 10 16 0.00 0.00
12:53 pm 12:53 Cloudy with Light Rain 51 10.6 44 6.7 77 77 SSE 15 24 29.64 1004 9 14 0.00 0.03
1:53 pm 13:53 Partly Cloudy 51 10.6 43 6.1 74 74 SSE 21 33 29.60 1002 10 16 0.00 0.03
2:53 pm 14:53 Cloudy 51 10.6 41 5 69 69 S 16 26 29.59 1002 10 16 0.00 0.00
3:53 pm 15:53 Mostly Sunny 51 10.6 42 5.6 71 71 SSE 18 30 29.58 1002 10 16 0.00 0.00
4:53 pm 16:53 Cloudy 50 10 39 3.9 66 66 SSE 14 22 29.56 1001 10 16 0.00 0.00
5:53 pm 17:53 Cloudy with Light Rain 49 9.4 40 4.4 71 71 SSW 12 19 29.57 1001 8 13 0.01 0.25
6:53 pm 18:53 Mostly Cloudy 46 7.8 41 5 83 83 SW 5 7 29.57 1001 10 16 0.07 1.78
7:53 pm 19:53 Cloudy with Light Rain 44 6.7 40 4.4 85 85 S 13 20 29.59 1002 6 10 0.10 2.54
8:06 pm 20:06 Cloudy with Light Rain 45 7 43 6 93 93 S 8 13 29.62 1003 9 14 0.00 0.00
8:49 pm 20:49 Cloudy 45 7 43 6 93 93 SE 3 6 29.65 1004 10 16 0.01 0.25
8:53 pm 20:53 Cloudy 44 6.7 43 6.1 96 96 ESE 3 6 29.61 1003 10 16 0.01 0.25
9:53 pm 21:53 Cloudy 45 7.2 41 5 86 86 S 8 13 29.62 1003 10 16 0.00 0.00
10:20 pm 22:20 Cloudy 45 7 41 5 87 87 SSW 6 9 29.68 1005 10 16 0.00 0.00
10:36 pm 22:36 Cloudy 45 7 41 5 87 87 SSW 5 7 29.68 1005 10 16 0.00 0.00
10:44 pm 22:44 Cloudy 45 7 39 4 81 81 SW 5 7 29.68 1005 10 16 0.00 0.00
10:53 pm 22:53 Cloudy 44 6.7 40 4.4 85 85 SSW 8 13 29.65 1004 10 16 0.00 0.00
11:53 pm 23:53 Cloudy 44 6.7 40 4.4 85 85 S 12 19 29.66 1004 10 16 0.00 0.00

Powered by AerisWeather